Location: Bergnerzell
(49.1816°N, 10.2565°E)
Time: 09:41:15
(UTC+00:00)

IDEFIX/ARIANE 42P - Pass Details

Date: 23 May 2024
Orbit: 783 x 799 km, 98.5° (Epoch: 15 June)

Event Time Altitude Azimuth Distance (km) Brightness Sun altitude
Rises 01:17:11 0° 14° (NNE) 3,317 7.4 -15.1°
Reaches altitude 10° 01:19:32 10° 14° (NNE) 2,384 6.3 -14.9°
Maximum altitude 01:24:49 88° 288° (WNW) 808 2.6 -14.5°
Enters shadow 01:28:31 20° 198° (SSW) 1,767 3.8 -14.2°
